Tracking 19817 objects as of 19-Aug-2019
HD Live streaming from Space Station
objects crossing your sky now

FLOCK 2K 21

Track FLOCK 2K 21 now!
10-day predictions
FLOCK 2K 21 is classified as:


NORAD ID: 42860
Int'l Code: 2017-042AM
Perigee: 448.5 km
Apogee: 462.0 km
Inclination: 96.9 °
Period: 93.5 minutes
Semi major axis: 6826 km
RCS: Unknown
Launch date: July 14, 2017
Source: United States (US)
Launch site: TYURATAM MISSILE AND SPACE COMPLEX (TTMTR)
aabbcc
Your satellite tracking list
Your tracking list is empty




NASA's NSSDC Master Catalog

Two Line Element Set (TLE):
1 42860U 17042AM  19230.85428961 +.00001291 +00000-0 +34987-4 0  9990
2 42860 096.9323 110.3088 0009917 012.1295 348.0189 15.39318766117372
Source of the keplerian elements: AFSPC